FW9475 Weather Reports


time (UTC)temp
C
wind
direction
speed
KPH
gust
KPH
rain 1hr
cm
rain 24hr
cm
rain mn
cm
humidity
%
barometer
mb
20260502194559 12 251 0.0 4.8 0.08 0.91 0.91 93 1017.2
20260502193100 12 99 0.0 4.8 0.00 0.84 0.84 93 1017.1
20260502191551 12 234 0.0 3.2 0.00 0.81 0.81 92 1017.3
20260502190052 12 219 0.0 1.6 0.00 0.81 0.81 92 1017.3
20260502184555 12 0 0.0 6.4 0.00 0.81 0.81 92 1017.4
20260502183047 12 0 0.0 1.6 0.05 0.81 0.81 92 1017.6
20260502181547 12 0 0.0 1.6 0.08 0.81 0.81 91 1017.8
20260502163057 15 0 0.0 1.6 0.18 0.18 0.18 85 1018.8
20260502161550 15 0 0.0 1.6 0.08 0.08 0.08 81 1018.8
20260502151612 18 101 0.0 6.4 0.00 0.00 0.00 63 1018.8
20260502123051 19 221 0.0 6.4 0.00 0.00 0.00 59 1021.2
20260502121553 18 269 1.6 9.7 0.00 0.00 0.00 60 1021.4
20260502114550 17 163 3.2 14.5 0.00 0.00 0.00 64 1022.0
20260502113102 17 159 1.6 4.8 0.00 0.00 0.00 65 1022.1
20260502111549 16 213 4.8 9.7 0.00 0.00 0.00 67 1022.2
20260502110050 17 207 1.6 6.4 0.00 0.00 0.00 67 1022.7
20260502104607 17 246 0.0 8.0 0.00 0.00 0.00 64 1022.5
20260502103050 16 165 0.0 6.4 0.00 0.00 0.00 68 1022.7
20260502101608 16 271 1.6 9.7 0.00 0.00 0.00 69 1022.9
20260502064552 10 247 0.0 1.6 0.00 0.00 0.00 92 1024.0
20260502063049 9 0 0.0 0.0 0.00 0.00 0.00 93 1024.1
20260502061550 8 0 0.0 0.0 0.00 0.00 0.00 94 1024.1
20260502060056 7 0 0.0 0.0 0.00 0.00 0.00 94 1024.2
20260502054603 7 0 0.0 0.0 0.00 0.00 0.00 93 1024.2
20260502053055 7 0 0.0 0.0 0.00 0.00 0.00 93 1024.0
20260502051553 6 0 0.0 0.0 0.00 0.00 0.00 93 1024.0
20260502050054 6 0 0.0 0.0 0.00 0.00 0.00 93 1024.2
20260502044553 6 0 0.0 0.0 0.00 0.00 0.00 93 1024.1
20260502043109 6 0 0.0 0.0 0.00 0.00 0.00 92 1024.3
20260502041612 6 0 0.0 0.0 0.00 0.00 0.00 92 1024.2
20260502040057 6 0 0.0 0.0 0.00 0.00 0.00 92 1024.4
20260502034553 7 0 0.0 0.0 0.00 0.00 0.00 91 1024.4
20260502033053 7 0 0.0 0.0 0.00 0.00 0.00 91 1024.5
20260502031551 7 0 0.0 0.0 0.00 0.00 0.00 91 1024.4
20260502030109 7 0 0.0 0.0 0.00 0.00 0.00 91 1024.4
20260502024600 7 0 0.0 0.0 0.00 0.00 0.00 91 1024.5
20260502023125 8 0 0.0 0.0 0.00 0.00 0.00 90 1024.7
20260502021551 8 0 0.0 0.0 0.00 0.00 0.00 91 1024.8
20260502020052 8 0 0.0 0.0 0.00 0.00 0.00 90 1024.8
20260502014603 8 0 0.0 0.0 0.00 0.00 0.00 89 1024.8
20260502013057 9 0 0.0 0.0 0.00 0.00 0.00 89 1024.9
20260502011604 9 0 0.0 0.0 0.00 0.00 0.00 89 1024.9
20260502010049 9 0 0.0 0.0 0.00 0.00 0.00 89 1025.1
20260502004551 10 0 0.0 0.0 0.00 0.00 0.00 88 1025.4
20260502003050 10 201 0.0 1.6 0.00 0.00 0.00 88 1025.5
20260502001558 10 186 0.0 1.6 0.00 0.00 0.00 88 1025.5
20260501234556 10 240 0.0 3.2 0.00 0.00 0.00 87 1025.6
20260501233118 10 155 0.0 3.2 0.00 0.00 0.00 85 1025.7
20260501231626 10 176 0.0 3.2 0.00 0.00 0.00 85 1025.8
20260501230119 10 198 0.0 1.6 0.00 0.00 0.00 84 1025.7
20260501224610 11 178 0.0 1.6 0.00 0.00 0.00 83 1025.7
20260501223102 11 0 0.0 1.6 0.00 0.00 0.00 83 1025.7
20260501221604 11 235 0.0 1.6 0.00 0.00 0.00 82 1025.8
20260501220104 11 194 1.6 3.2 0.00 0.00 0.00 81 1025.7
20260501214554 11 162 1.6 4.8 0.00 0.00 0.00 82 1025.7
20260501213053 11 163 0.0 1.6 0.00 0.00 0.00 82 1025.6
20260501211553 12 161 0.0 1.6 0.00 0.00 0.00 82 1025.6
20260501210051 12 201 0.0 3.2 0.00 0.00 0.00 83 1025.6
20260501204553 12 236 0.0 3.2 0.00 0.00 0.00 83 1025.6
20260501203051 12 195 0.0 3.2 0.00 0.00 0.00 83 1025.6
20260501201549 13 200 0.0 1.6 0.00 0.00 0.00 84 1025.6
20260501200052 13 222 0.0 1.6 0.00 0.00 0.00 84 1025.6